Location: Pine Creek
(45.5072°N, 110.5649°W)
Time: 17:07:42
(UTC+00:00)

Envisat - Pass Details

Date: 29 January 2022
Orbit: 764 x 765 km, 98.2° (Epoch: 19 May)

Event Time Altitude Azimuth Distance (km) Brightness Sun altitude
Rises 14:05:41 0° 356° (N) 3,242 6.0 -7.5°
Reaches altitude 10° 14:09:15 10° 330° (NNW) 2,310 5.0 -6.9°
Maximum altitude 14:11:30 13° 304° (WNW) 2,100 4.7 -6.5°
Drops below altitude 10° 14:13:45 10° 277° (W) 2,305 4.8 -6.2°
Sets 14:17:19 0° 251° (WSW) 3,226 5.8 -5.6°
